Current weather by "City, St" or "zip code"  
 

Current Conditions: New Bedford, New Bedford Regional Airport, MA

Overcast


61.0 F

Last Updated on May 21 2022, 3:53 am EDT
Humidity: 93%
Wind Speed: SE 9.2 mph
Barometer 29.98 in
Dewpoint: 59.0 F
Visibility: 10.00 mi
Precip: --
Heat Index: NA
Wind Chill: 60 F
Current conditions at:

New Bedford, New Bedford Regional Airport, MA (KEWB)

Lat: 41.67528 Lon: 70.95694

Local Radar Image active severe weather and emergency alerts image image weather storm and storm spotter reports image weather observation monitoring service image
Local
Radar
Active
Alerts
Storm Reports Obs
Monitoring

Sign-up For Email & Text Message Weather Alert Notification Services



Advertise Here

Observation History for New Bedford, New Bedford Regional Airport, MA


Time Wind
(mph)
Vis
(mi)
Weather Precip (in) Temperature (F) Relative
Humidity
Wind
Chill
(F)
Heat
Index
(F)
Pressure
Air Dwpt altimeter
(in)
sea level
(mb)
Rmks
3:53 am EDT SE 9.2 10.00 Overcast -- 61.0 59.0 93% 60 NA 29.98 1015.0
2:53 am EDT SE 9.2 10.00 Overcast Trace 61.0 59.0 93% 60 NA 29.99 1015.4
1:53 am EDT SE 4.6 6.00 Light Rain Fog/Mist 00.22 61.0 59.0 93% 61 NA 30.01 1016.2
12:53 am EDT E 6.9 4.00 Light Rain Fog/Mist 00.02 60.0 57.9 93% 59 NA 30.03 1017.0
11:53 pm EDT SE 6.9 10.00 Overcast -- 60.0 57.0 90% 59 NA 30.02 1016.4
10:53 pm EDT SE 11.5 10.00 Overcast -- 60.0 57.0 90% 58 NA 30.04 1017.2
9:53 pm EDT SE 10.4 10.00 Overcast -- 59.0 55.0 87% 57 NA 30.06 1017.9
8:53 pm EDT S 5.8 10.00 Overcast -- 59.0 54.0 83% 58 NA 30.06 1017.9
7:53 pm EDT SE 10.4 10.00 Overcast -- 60.0 53.1 78% 58 NA 30.03 1016.8
5:53 pm EDT S 10.4 10.00 Overcast -- 63.0 53.1 70% 62 NA 30.03 1016.9
4:53 pm EDT S 8.1 10.00 Fair -- 65.0 53.1 66% NA NA 30.02 1016.7
3:53 pm EDT SE 9.2 10.00 Fair -- 68.0 55.0 63% NA NA 30.03 1016.8
2:53 pm EDT SE 9.2 10.00 Fair -- 67.0 53.1 61% NA NA 30.03 1016.8
11:53 am EDT SE 9.2 10.00 Mostly Cloudy -- 64.0 53.1 68% NA NA 30.04 1017.3
10:53 am EDT SE 8.1 10.00 Overcast -- 63.0 55.0 76% 63 NA 30.03 1016.8
9:53 am EDT 4.6 10.00 Mostly Cloudy -- 62.0 54.0 75% 62 NA 30.02 1016.4
8:53 am EDT N 0.0 10.00 Mostly Cloudy -- 63.0 54.0 73% NA NA 29.99 1015.7
7:53 am EDT N 0.0 8.00 Fair -- 59.0 54.0 83% NA NA 29.98 1015.3
5:53 am EDT N 0.0 0.25 Fog -- 45.0 44.1 97% NA NA 29.91 1012.9
4:53 am EDT N 0.0 1.25 Fog/Mist -- 46.0 44.1 93% NA NA 29.89 1012.0

Regional Weather Observation


Pawtucket, North Central State Airport, RI (KSFZ)

Light Rain Fog/Mist
61.0 F

Providence, Theodore Francis Green State Airport, RI (KPVD)

Fog/Mist
62.0 F

Newport, Newport State Airport, RI (KUUU)

Fog/Mist
60.0 F

New Bedford, New Bedford Regional Airport, MA (KEWB)

Overcast
61.0 F

Plymouth, Plymouth Municipal Airport, MA (KPYM)

Overcast
62.0 F

Norwood, Norwood Memorial Airport, MA (KOWD)

Fog/Mist
62.0 F

Advertise Here


Advertise Here